Hourly Weather Rudolstadt

Today, 18 April, Sunday

Time Temperature Precipitation Wind Pressure Humidity
00:00 +5°C° 0.1 mm 1 mps 745 mmHg 97%
01:00 +6°C° 0 mm 1 mps 745 mmHg 97%
02:00 +5°C° 0.2 mm 0 mps 745 mmHg 98%
03:00 +5°C° 0.2 mm 0 mps 745 mmHg 98%
04:00 +5°C° 0.2 mm 0 mps 744 mmHg 98%
05:00 +5°C° 0 mm 0 mps 744 mmHg 98%
06:00 +5°C° 0 mm 0 mps 744 mmHg 98%
07:00 +5°C° 0 mm 0 mps 744 mmHg 97%
08:00 +6°C° 0 mm 0 mps 744 mmHg 96%
09:00 +8°C° 0 mm 1 mps 745 mmHg 94%
10:00 +8°C° 0 mm 1 mps 745 mmHg 92%
11:00 +9°C° 0.1 mm 1 mps 744 mmHg 86%
12:00 +10°C° 0.1 mm 1 mps 744 mmHg 80%
13:00 +10°C° 0.1 mm 2 mps 744 mmHg 73%
14:00 +10°C° 0.2 mm 2 mps 744 mmHg 75%
15:00 +10°C° 0.2 mm 2 mps 744 mmHg 77%
16:00 +10°C° 0.2 mm 2 mps 743 mmHg 78%
17:00 +10°C° 0.5 mm 1 mps 743 mmHg 83%
18:00 +9°C° 0.5 mm 1 mps 744 mmHg 88%
19:00 +7°C° 0.5 mm 0 mps 744 mmHg 93%
20:00 +8°C° 0 mm 1 mps 744 mmHg 93%
21:00 +7°C° 0 mm 1 mps 744 mmHg 94%
22:00 +6°C° 0 mm 1 mps 744 mmHg 94%
23:00 +6°C° 0 mm 1 mps 744 mmHg 94%

Tomorrow, 19 April, Monday

Time Temperature Precipitation Wind Pressure Humidity
00:00 +6°C° 0 mm 1 mps 744 mmHg 94%
01:00 +5°C° 0 mm 0 mps 744 mmHg 95%
02:00 +5°C° 0 mm 0 mps 744 mmHg 95%
03:00 +5°C° 0 mm 0 mps 744 mmHg 96%
04:00 +5°C° 0 mm 0 mps 744 mmHg 96%
05:00 +6°C° 0 mm 0 mps 744 mmHg 96%
06:00 +6°C° 0 mm 0 mps 744 mmHg 95%
07:00 +6°C° 0 mm 0 mps 744 mmHg 95%
08:00 +8°C° 0 mm 1 mps 744 mmHg 91%
09:00 +9°C° 0 mm 1 mps 744 mmHg 88%
10:00 +9°C° 0 mm 2 mps 744 mmHg 84%
11:00 +10°C° 0.1 mm 2 mps 744 mmHg 78%
12:00 +12°C° 0.1 mm 2 mps 744 mmHg 72%
13:00 +13°C° 0.1 mm 2 mps 743 mmHg 66%
14:00 +12°C° 0.1 mm 3 mps 743 mmHg 66%
15:00 +12°C° 0.1 mm 3 mps 743 mmHg 67%
16:00 +12°C° 0.1 mm 3 mps 743 mmHg 67%
17:00 +12°C° 0 mm 2 mps 743 mmHg 73%
18:00 +9°C° 0 mm 2 mps 743 mmHg 79%
19:00 +9°C° 0 mm 1 mps 743 mmHg 84%
20:00 +9°C° 0 mm 1 mps 743 mmHg 86%
21:00 +8°C° 0 mm 1 mps 743 mmHg 88%
22:00 +6°C° 0 mm 0 mps 743 mmHg 90%
23:00 +6°C° 0 mm 0 mps 743 mmHg 90%

Day after tomorrow, 20 April, Tuesday

Time Temperature Precipitation Wind Pressure Humidity
00:00 +7°C° 0 mm 1 mps 743 mmHg 90%
01:00 +7°C° 0 mm 1 mps 743 mmHg 91%
02:00 +7°C° 0 mm 1 mps 743 mmHg 90%
03:00 +7°C° 0 mm 1 mps 742 mmHg 89%
04:00 +7°C° 0 mm 1 mps 742 mmHg 88%
05:00 +7°C° 0.6 mm 1 mps 742 mmHg 89%
06:00 +8°C° 0.6 mm 1 mps 742 mmHg 90%
07:00 +8°C° 0.6 mm 1 mps 742 mmHg 91%
08:00 +9°C° 0.2 mm 1 mps 742 mmHg 89%
09:00 +9°C° 0.2 mm 1 mps 742 mmHg 86%
10:00 +10°C° 0.2 mm 1 mps 742 mmHg 84%
11:00 +11°C° 0.1 mm 1 mps 742 mmHg 81%
12:00 +12°C° 0.1 mm 1 mps 742 mmHg 77%
13:00 +13°C° 0.1 mm 1 mps 742 mmHg 73%
14:00 +13°C° 0.3 mm 1 mps 741 mmHg 72%
15:00 +14°C° 0.3 mm 1 mps 741 mmHg 70%
16:00 +14°C° 0.3 mm 1 mps 741 mmHg 68%
17:00 +13°C° 0.6 mm 1 mps 741 mmHg 74%
18:00 +11°C° 0.6 mm 1 mps 741 mmHg 79%
19:00 +10°C° 0.6 mm 1 mps 741 mmHg 85%
20:00 +10°C° 0.4 mm 1 mps 741 mmHg 87%
21:00 +9°C° 0.4 mm 1 mps 741 mmHg 90%
22:00 +8°C° 0.4 mm 1 mps 741 mmHg 93%
23:00 +8°C° 0 mm 1 mps 741 mmHg 93%

21 April, Wednesday

Time Temperature Precipitation Wind Pressure Humidity
00:00 +7°C° 0 mm 1 mps 741 mmHg 93%
01:00 +7°C° 0 mm 1 mps 741 mmHg 93%
02:00 +7°C° 0 mm 1 mps 741 mmHg 93%
03:00 +6°C° 0 mm 1 mps 741 mmHg 92%
04:00 +6°C° 0 mm 1 mps 741 mmHg 92%
05:00 +7°C° 0 mm 1 mps 741 mmHg 89%
06:00 +8°C° 0 mm 1 mps 741 mmHg 87%
07:00 +9°C° 0 mm 1 mps 741 mmHg 84%
08:00 +9°C° 0 mm 2 mps 742 mmHg 75%
09:00 +11°C° 0 mm 3 mps 742 mmHg 66%
10:00 +12°C° 0 mm 4 mps 742 mmHg 57%
11:00 +13°C° 0 mm 4 mps 741 mmHg 52%
12:00 +14°C° 0 mm 4 mps 741 mmHg 48%
13:00 +14°C° 0 mm 4 mps 741 mmHg 44%
14:00 +14°C° 0 mm 4 mps 741 mmHg 44%
15:00 +14°C° 0 mm 4 mps 741 mmHg 45%
16:00 +14°C° 0 mm 4 mps 741 mmHg 45%
17:00 +12°C° 0 mm 4 mps 741 mmHg 57%
18:00 +11°C° 0 mm 3 mps 741 mmHg 68%
19:00 +9°C° 0 mm 3 mps 742 mmHg 80%
20:00 +8°C° 0 mm 3 mps 742 mmHg 83%
21:00 +7°C° 0 mm 3 mps 743 mmHg 86%
22:00 +7°C° 0 mm 2 mps 743 mmHg 88%
23:00 +6°C° 0 mm 2 mps 743 mmHg 87%

22 April, Thursday

Time Temperature Precipitation Wind Pressure Humidity
00:00 +5°C° 0 mm 2 mps 743 mmHg 86%
01:00 +4°C° 0 mm 2 mps 744 mmHg 84%
02:00 +3°C° 0 mm 2 mps 744 mmHg 86%
03:00 +2°C° 0 mm 2 mps 744 mmHg 88%
04:00 +1°C° 0 mm 2 mps 744 mmHg 90%
05:00 +1°C° 0 mm 3 mps 744 mmHg 85%
06:00 0°C° 0 mm 4 mps 745 mmHg 81%
07:00 +1°C° 0 mm 4 mps 745 mmHg 76%
08:00 +1°C° 0 mm 4 mps 745 mmHg 71%
09:00 +2°C° 0 mm 5 mps 745 mmHg 66%
10:00 +3°C° 0 mm 5 mps 746 mmHg 61%
11:00 +3°C° 0 mm 5 mps 746 mmHg 59%
12:00 +5°C° 0 mm 5 mps 746 mmHg 57%
13:00 +6°C° 0 mm 5 mps 746 mmHg 56%
14:00 +6°C° 0 mm 5 mps 746 mmHg 57%
15:00 +6°C° 0 mm 5 mps 746 mmHg 59%
16:00 +7°C° 0 mm 5 mps 747 mmHg 60%
17:00 +6°C° 0 mm 4 mps 747 mmHg 62%
18:00 +5°C° 0 mm 3 mps 747 mmHg 64%
19:00 +5°C° 0 mm 3 mps 747 mmHg 66%
20:00 +5°C° 0 mm 2 mps 747 mmHg 70%
21:00 +3°C° 0 mm 2 mps 748 mmHg 74%
22:00 +2°C° 0 mm 2 mps 749 mmHg 78%
23:00 +3°C° 0 mm 1 mps 749 mmHg 81%

23 April, Friday

Time Temperature Precipitation Wind Pressure Humidity
00:00 +2°C° 0 mm 1 mps 749 mmHg 84%
01:00 +2°C° 0 mm 1 mps 749 mmHg 87%
02:00 +1°C° 0 mm 1 mps 750 mmHg 88%
03:00 +1°C° 0 mm 1 mps 750 mmHg 90%
04:00 +1°C° 0 mm 1 mps 750 mmHg 91%
05:00 +2°C° 0 mm 1 mps 750 mmHg 85%
06:00 +3°C° 0 mm 1 mps 751 mmHg 79%
07:00 +4°C° 0 mm 1 mps 751 mmHg 73%
08:00 +5°C° 0 mm 2 mps 751 mmHg 66%
09:00 +5°C° 0 mm 3 mps 751 mmHg 60%
10:00 +8°C° 0 mm 3 mps 751 mmHg 53%
11:00 +9°C° 0 mm 3 mps 751 mmHg 51%
12:00 +10°C° 0 mm 3 mps 751 mmHg 50%
13:00 +10°C° 0 mm 4 mps 751 mmHg 48%
14:00 +10°C° 0 mm 4 mps 751 mmHg 49%
15:00 +10°C° 0 mm 4 mps 751 mmHg 50%
16:00 +10°C° 0 mm 4 mps 751 mmHg 51%
17:00 +8°C° 0 mm 4 mps 751 mmHg 58%
18:00 +7°C° 0 mm 3 mps 751 mmHg 66%
19:00 +6°C° 0 mm 2 mps 751 mmHg 73%
20:00 +4°C° 0 mm 2 mps 752 mmHg 76%
21:00 +3°C° 0 mm 2 mps 752 mmHg 80%
22:00 +3°C° 0 mm 1 mps 752 mmHg 83%
23:00 +3°C° 0 mm 1 mps 752 mmHg 84%
Show more